Tracking 19637 objects as of 18-Apr-2019
HD Live streaming from Space Station
objects crossing your sky now

METEOR 2-17 DEB

Track METEOR 2-17 DEB now!
10-day predictions


NORAD ID: 31400
Int'l Code: 1988-005V
Perigee: 904.0 km
Apogee: 930.8 km
Inclination: 82.5 °
Period: 103.2 minutes
Semi major axis: 7288 km
RCS: 0.007 m2 (small)
Launch date: January 30, 1988
Source: Commonwealth of Independent States (former USSR) (CIS)
Launch site: PLESETSK MISSILE AND SPACE COMPLEX (PKMTR)

Note: This is SATELLITE DEBRIS
aabbcc
Your satellite tracking list
Your tracking list is empty




NASA's NSSDC Master Catalog

Two Line Element Set (TLE):
1 31400U 88005V   19103.66077849  .00001424  00000-0  10411-2 0  9990
2 31400  82.5365 227.0097 0018365 186.7970 173.2950 13.95267060623734
Source of the keplerian elements: AFSPC